RH
48 50 50 52 53 53 66 77 77 78 81 79 71 61 62 65 60 63 69 70 72 72 71 69 67 64 63 66 68 68 68 69 71 79 81 77 76 75 74 77 78 75 72 66 69 75 76 77 78 79 76 80 86 86 89 91 92 93 94 96 96 98 99 99 97 89 80 75 73 75 67 56 63 71 71 63 47 45 52 53 52 52 51 51 50 48 49 52 53 55 56 55 52 47 43 36 28
56 57 57 57 59 63 76 88 84 79 76 71 64 62 68 68 64 71 75 71 71 71 69 66 62 60 60 60 64 69 69 72 75 80 80 76 75 74 74 75 76 75 75 69 68 74 76 78 79 81 79 83 89 88 87 87 90 90 93 97 96 99 97 97 97 88 80 73 65 70 60 38 48 68 71 69 60 50 51 56 57 57 58 58 57 56 55 55 57 57 56 51 44 38 32 23 16
67 66 67 66 71 79 80 87 89 81 75 69 67 68 69 71 72 78 78 72 72 69 63 61 58 56 55 54 59 66 69 74 78 82 83 79 76 77 76 76 77 76 78 75 72 76 77 78 81 82 82 84 89 92 91 86 88 89 91 98 99 99 95 96 99 91 86 76 59 60 59 39 31 48 64 63 63 60 58 60 57 57 57 60 61 59 58 55 54 51 46 38 30 25 18 12 7
59 61 65 65 74 89 89 91 92 87 84 78 74 72 71 76 75 77 79 72 68 64 59 55 53 51 49 48 48 54 63 69 73 79 83 79 77 78 76 75 77 77 79 79 78 80 79 80 83 84 83 86 90 92 94 89 91 95 94 99 99 98 98 97 99 94 89 80 63 53 55 56 33 25 40 41 44 50 52 52 45 45 47 51 55 54 53 48 41 35 29 20 15 12 8 6 5
46 51 58 63 76 88 90 91 91 89 85 79 75 75 76 77 75 74 77 73 59 50 52 49 49 49 43 38 35 43 54 62 64 67 74 77 78 78 78 78 78 79 79 81 84 83 81 83 86 86 84 85 88 89 94 96 96 99 98 100 97 95 98 97 98 95 88 81 69 55 48 57 51 34 30 27 34 34 37 38 25 26 32 33 36 37 37 31 24 17 13 8 6 6 5 5 5
33 37 53 69 82 82 83 88 86 85 79 75 75 77 75 74 80 74 69 73 59 41 40 43 46 43 40 37 31 34 38 50 56 55 67 74 76 77 79 81 81 83 81 83 87 85 84 86 87 88 86 84 86 88 93 98 99 99 99 101 96 91 95 98 98 93 89 83 72 62 49 48 57 58 51 48 48 33 26 30 22 16 16 16 15 16 16 13 11 8 6 6 5 5 5 6 5
25 40 63 72 85 82 83 89 82 80 74 71 72 71 71 74 74 60 51 58 61 48 29 25 32 33 37 37 35 35 26 36 49 50 62 65 69 73 74 79 80 82 82 84 88 87 86 86 86 86 87 86 87 89 90 93 97 99 98 100 98 95 97 98 99 96 94 89 80 71 60 55 60 61 60 64 64 50 38 37 36 27 17 13 10 9 9 6 7 6 5 6 6 6 5 6 6
24 44 63 67 86 87 84 88 79 76 70 64 65 65 71 71 56 40 35 39 55 64 45 24 17 24 35 31 33 39 23 31 49 49 53 53 59 64 65 70 72 77 81 84 86 85 87 88 87 86 88 89 87 87 88 90 95 97 99 100 99 99 98 96 97 99 96 92 89 84 75 70 70 58 40 39 51 60 62 58 51 43 34 27 19 12 12 11 9 9 9 8 7 7 8 8 8
26 47 68 73 82 84 81 81 71 64 60 57 59 61 68 67 48 33 30 30 40 59 64 40 14 15 28 25 30 41 30 29 41 43 46 47 49 50 53 57 60 68 77 82 84 84 85 86 86 87 91 91 88 87 89 89 92 97 99 99 98 98 98 97 98 99 96 91 90 89 84 75 72 65 38 19 23 36 49 52 45 39 37 35 31 23 16 14 13 13 11 11 10 10 10 10 10
38 59 71 71 70 76 76 70 61 55 54 53 52 53 60 62 49 31 22 22 27 43 51 31 14 13 17 17 21 36 39 33 38 44 46 45 41 39 42 50 55 59 67 74 79 82 82 84 83 84 88 93 89 85 88 87 90 95 95 96 97 96 97 99 100 100 97 93 91 89 88 80 68 66 55 35 22 21 30 38 38 35 35 35 34 31 26 20 15 16 14 13 12 12 12 12 12
37 61 63 70 76 76 67 56 53 54 56 51 46 46 50 55 52 37 19 18 31 40 35 21 18 17 14 15 20 36 46 40 39 44 41 39 40 40 42 49 54 54 58 62 66 71 72 75 79 82 86 93 91 84 87 88 90 92 91 97 99 97 98 100 100 99 99 96 95 92 89 86 75 68 69 63 44 30 30 37 43 46 48 46 42 38 34 30 23 17 15 14 13 13 12 12 12
27 62 75 82 83 74 62 55 53 53 53 48 49 55 56 57 56 42 21 18 23 25 36 38 28 21 17 17 31 45 46 40 37 39 36 38 47 51 49 48 49 48 48 49 51 55 57 60 67 76 82 90 91 89 91 90 93 93 94 100 101 98 96 99 100 99 100 98 95 92 87 84 83 79 81 83 73 54 40 36 39 46 52 51 52 50 36 29 30 23 18 16 13 13 12 13 12
27 59 81 81 76 71 63 57 56 50 47 45 49 52 50 50 46 33 19 17 18 28 48 49 32 24 20 26 48 51 46 51 52 51 48 44 48 52 53 50 47 46 44 43 42 42 46 51 58 65 72 83 89 89 92 93 95 95 97 99 97 97 96 99 100 100 100 98 95 90 83 78 78 81 81 83 82 75 62 54 51 53 55 54 60 65 52 32 24 24 24 25 21 17 13 11 11
29 51 75 78 69 65 58 51 52 50 46 44 43 42 40 41 39 27 20 18 21 36 39 31 29 26 27 45 66 63 54 56 52 52 48 38 37 41 46 49 48 47 46 44 42 39 38 41 51 59 61 70 81 88 94 96 94 93 98 98 96 98 99 100 99 100 99 96 94 88 82 79 76 76 76 75 72 70 65 64 66 69 66 59 56 60 64 52 36 26 22 24 27 25 21 19 16
20 32 54 72 65 57 54 46 47 50 48 44 43 46 44 40 37 27 22 21 22 28 24 23 27 24 28 39 49 51 47 40 35 38 36 29 28 29 32 36 38 39 40 39 38 38 37 36 41 52 57 60 70 86 96 99 97 95 96 96 98 100 99 100 99 100 100 97 94 90 86 83 81 78 74 71 66 61 56 54 55 62 62 54 45 37 43 51 49 39 25 21 22 23 26 30 30
17 17 26 55 63 55 51 44 42 45 44 42 41 44 43 35 31 28 25 22 18 19 20 24 26 22 21 22 29 35 34 29 25 29 27 24 24 22 22 23 25 25 25 24 23 25 30 34 34 40 52 57 63 79 91 94 97 97 96 95 98 100 100 100 99 99 98 99 97 94 91 86 83 78 71 66 61 58 53 48 43 42 45 44 41 37 37 40 43 42 31 23 20 20 20 23 28
17 14 19 42 54 49 46 43 44 43 39 39 37 35 37 32 28 34 30 21 18 18 18 21 28 28 21 21 30 33 34 33 25 25 24 23 22 20 19 18 18 17 15 14 13 14 17 24 29 32 41 52 63 75 84 89 96 98 95 95 98 99 98 97 98 99 97 98 98 92 86 83 80 72 66 62 58 53 44 41 38 33 32 32 31 31 36 39 42 45 42 36 29 25 21 19 20
14 21 40 56 53 44 39 40 44 46 42 38 31 24 24 23 22 29 26 18 19 19 15 18 27 33 30 29 38 44 45 40 30 24 22 22 22 19 18 16 17 17 15 13 12 12 11 13 19 26 32 44 60 67 75 87 91 90 88 93 98 95 93 94 96 97 96 97 93 82 77 74 72 69 65 63 60 50 40 34 32 31 28 25 23 21 23 26 30 35 39 42 40 32 25 23 21
14 25 45 55 49 41 37 39 40 38 34 26 20 16 16 16 16 20 18 15 14 12 14 20 25 30 31 29 39 50 47 40 31 22 18 18 17 15 16 15 15 15 14 13 13 12 11 11 11 18 24 35 54 65 77 88 87 88 89 94 98 96 96 98 97 94 92 93 88 79 76 73 71 68 61 63 61 45 35 33 28 27 27 24 23 22 21 21 21 22 24 28 31 32 28 26 23
20 26 30 34 40 37 33 38 37 30 22 14 13 13 13 14 14 16 15 13 8 9 20 26 25 25 27 26 31 38 39 37 28 18 13 12 10 11 12 12 13 13 13 13 13 13 12 13 11 13 19 27 43 62 76 80 81 88 92 94 96 95 99 98 95 91 87 85 81 77 76 74 71 66 58 56 56 44 35 31 27 26 26 26 25 24 24 24 23 23 23 22 23 25 26 27 25
23 29 28 28 32 28 25 32 33 23 14 10 11 11 11 12 11 11 12 11 7 11 24 27 25 23 22 22 24 27 30 29 20 13 10 8 9 10 10 11 11 11 11 12 12 13 13 13 13 12 15 21 31 48 66 73 78 86 87 88 91 93 94 90 89 92 91 86 78 76 74 67 62 60 58 54 48 46 42 37 34 33 32 33 32 30 30 31 30 28 25 24 24 25 25 27 26
18 20 22 23 24 24 24 26 24 14 8 9 9 9 9 8 8 9 10 12 13 16 20 18 16 16 13 13 14 14 15 14 11 10 9 9 10 10 11 11 12 12 11 11 11 12 13 14 14 13 14 16 20 28 47 69 82 87 85 83 87 94 93 84 83 87 91 92 88 86 80 68 60 57 57 55 47 43 44 43 43 43 44 46 46 46 46 46 45 42 36 30 26 25 25 26 28
16 11 13 17 21 25 21 15 13 7 6 7 7 8 7 7 6 8 11 16 19 18 14 9 8 8 8 7 7 6 5 6 7 7 7 8 9 10 12 12 13 14 13 12 12 12 13 14 14 15 15 14 16 17 31 60 81 85 85 86 86 91 95 91 89 88 90 94 95 92 83 76 73 67 61 58 52 44 42 41 41 43 45 47 49 51 51 52 50 47 44 40 33 28 27 26 27
11 7 8 11 13 16 12 7 6 6 6 6 6 6 6 8 6 8 15 18 16 12 8 7 8 7 7 7 6 5 5 4 4 4 5 5 6 8 9 12 14 15 15 14 14 14 14 15 15 16 16 16 16 16 29 54 72 80 84 85 84 84 89 92 90 89 91 93 96 94 86 84 87 82 71 64 59 50 44 41 40 41 43 44 47 48 47 48 45 42 39 38 35 31 28 27 27
9 8 10 11 8 7 6 5 5 5 5 4 5 5 6 8 5 11 16 12 10 9 8 8 8 8 8 8 7 6 6 6 6 5 5 5 5 5 5 7 9 11 14 15 15 14 14 16 16 17 18 18 17 20 42 65 69 74 78 79 84 89 87 88 89 88 89 93 97 99 95 94 96 93 83 75 69 60 50 44 43 42 43 44 46 48 47 46 44 39 36 33 32 30 29 28 28
8 10 11 8 6 6 6 5 5 5 4 4 5 4 7 6 6 18 16 8 10 8 7 8 8 8 8 8 8 7 7 7 7 7 7 7 6 6 6 5 5 6 8 11 14 14 13 14 15 17 17 18 18 20 38 63 70 69 73 77 79 85 88 88 88 88 92 98 99 100 100 98 97 95 89 81 74 67 56 47 45 43 43 43 43 43 42 42 40 36 34 32 31 30 30 30 30
6 6 6 5 5 5 5 4 4 5 4 4 4 4 8 6 10 21 15 7 10 9 8 9 7 8 8 8 8 8 8 7 8 8 7 7 8 7 7 7 6 6 5 6 10 12 12 12 12 15 17 17 19 20 24 42 63 73 77 80 76 80 89 89 85 88 96 99 99 100 99 98 98 97 93 85 78 74 61 48 46 43 43 43 40 39 39 38 36 34 33 31 31 32 31 32 32
5 5 5 5 5 4 4 5 4 4 4 4 4 9 14 9 9 16 12 10 11 9 8 8 8 8 8 8 8 8 8 8 8 8 8 8 8 8 8 8 8 7 8 7 7 9 11 12 12 12 15 17 17 19 21 26 44 63 74 80 78 79 86 89 88 92 95 92 94 96 95 98 98 98 97 92 88 83 72 61 58 58 57 51 42 39 39 37 35 36 35 33 33 33 33 33 33
5 7 5 4 5 4 6 8 8 6 6 5 5 18 23 13 11 14 14 14 12 10 8 8 9 8 8 8 8 9 9 8 8 7 8 8 8 8 8 8 8 8 8 8 8 8 9 11 13 14 13 15 19 21 22 23 26 37 56 72 72 68 77 88 86 87 89 86 86 88 93 98 93 90 93 94 91 85 81 79 78 75 67 56 46 43 42 40 37 39 39 36 35 35 35 36 35
5 8 7 9 11 9 11 14 14 10 7 6 6 22 31 20 17 18 17 17 13 11 9 8 9 8 9 9 9 9 9 8 8 8 8 8 8 8 8 8 8 8 8 8 8 8 9 10 15 29 28 15 13 20 26 29 23 21 39 64 73 71 79 84 81 81 79 80 87 89 90 94 94 92 91 94 93 87 83 85 87 83 72 61 52 46 45 42 40 41 41 39 38 38 37 38 38
7 11 13 19 22 19 20 19 17 12 8 8 5 17 32 27 22 21 19 17 13 11 9 8 9 9 9 9 9 9 9 9 8 8 9 9 9 9 9 9 8 9 9 9 9 8 9 9 13 36 55 47 29 17 18 26 24 18 22 40 57 71 82 77 75 78 74 80 93 92 87 87 93 98 97 97 98 96 93 92 93 89 83 77 68 59 50 43 40 39 40 39 39 39 38 40 41
14 20 19 23 25 22 21 19 18 15 10 9 7 14 27 27 23 20 17 14 11 10 9 8 9 9 10 9 9 9 9 10 9 9 9 9 10 10 9 10 9 10 9 9 10 9 9 10 8 17 39 64 68 46 30 26 20 16 16 20 29 51 80 87 84 87 88 92 97 94 93 87 86 92 97 99 99 99 100 99 98 95 92 90 83 75 62 49 42 37 38 41 42 41 40 41 43
23 27 25 25 23 20 20 19 19 18 14 12 10 11 18 21 20 14 12 12 11 12 10 8 9 9 10 9 10 10 10 10 11 10 10 10 10 11 11 11 10 10 10 9 10 10 9 9 9 8 8 31 63 75 72 55 31 17 12 14 18 29 61 87 93 93 93 94 97 98 95 86 86 93 96 98 99 99 100 100 100 99 98 97 91 85 75 63 53 47 48 48 48 47 43 43 46
25 29 31 30 25 21 21 22 20 20 20 18 13 11 14 19 19 15 15 15 14 13 10 9 9 9 10 11 10 11 11 12 12 12 12 11 11 11 11 11 11 10 10 10 10 10 10 9 8 10 7 8 26 53 73 75 68 55 29 13 14 18 36 67 84 87 86 86 87 84 78 77 88 98 98 99 100 98 100 100 99 100 99 98 95 90 85 78 70 65 64 61 57 55 52 51 52
26 28 30 25 17 14 14 17 19 18 18 18 15 15 19 21 18 19 21 20 17 13 10 10 10 10 11 12 12 13 13 13 13 13 13 13 12 12 12 12 11 11 11 11 10 9 10 12 11 9 11 10 12 24 38 52 68 74 60 36 19 15 23 45 68 81 89 93 91 86 84 87 95 100 99 100 100 98 99 99 99 100 99 98 97 92 87 84 81 78 76 73 70 67 66 67 64
26 20 18 14 9 7 6 13 20 19 19 19 16 19 26 25 19 18 19 19 18 15 12 12 11 11 12 13 14 14 15 15 15 15 15 15 15 15 14 14 13 13 13 12 11 11 10 11 13 12 12 12 13 19 24 33 42 48 54 48 32 25 23 29 48 66 81 92 97 99 99 98 99 100 98 97 98 96 95 97 99 100 99 99 100 96 92 91 91 91 87 82 80 80 79 79 76
18 11 9 8 8 6 7 18 26 25 25 23 20 23 27 25 20 18 17 16 16 15 15 15 14 14 14 15 16 16 17 17 17 17 17 17 17 17 17 17 17 16 16 15 14 14 13 12 12 12 12 13 14 18 22 28 34 33 38 43 39 36 30 25 33 49 67 79 90 99 100 98 98 99 98 95 96 96 94 96 98 100 100 99 100 100 98 98 98 99 97 93 90 90 87 85 84
10 8 8 8 8 10 15 24 28 27 27 23 21 23 24 22 20 17 15 15 15 15 16 17 18 17 16 17 18 19 19 19 19 19 19 19 19 18 19 19 20 19 18 19 18 17 17 16 16 14 14 14 14 18 22 26 32 34 36 40 39 40 39 35 34 45 62 71 83 97 101 99 99 99 99 98 99 99 98 99 98 99 100 99 100 100 99 100 100 99 100 99 98 97 96 93 90
8 8 10 9 9 18 27 30 29 28 28 25 22 22 22 20 17 15 15 16 17 17 18 19 20 20 20 21 21 21 21 21 21 20 20 20 20 20 20 20 20 21 21 21 21 21 22 20 20 20 18 18 18 17 19 21 26 32 35 38 39 41 46 46 39 42 59 71 79 94 101 99 100 100 99 99 100 100 100 100 99 100 100 100 100 100 99 100 100 99 99 100 100 99 100 99 96
8 10 12 13 18 27 30 30 32 31 26 22 18 19 21 19 16 16 18 20 20 20 20 21 22 22 23 23 23 23 22 22 22 22 22 22 22 22 22 22 21 22 22 22 22 22 22 22 22 22 21 21 21 21 21 20 21 24 27 33 37 37 40 46 43 37 47 62 73 86 97 100 100 99 100 100 99 100 100 99 99 100 100 100 99 99 100 100 100 100 99 100 100 100 100 100 99
12 17 21 25 31 33 32 30 29 25 19 15 17 24 25 18 17 20 22 24 23 23 23 24 25 26 27 27 26 26 25 24 24 24 24 23 24 25 25 25 25 24 24 23 23 22 22 23 24 25 25 24 23 22 23 23 24 24 24 28 33 34 33 37 41 40 44 56 69 78 87 96 101 100 99 100 100 100 100 99 100 99 100 100 100 99 99 100 100 100 100 100 99 100 100 100 100
20 23 24 26 28 29 29 26 23 21 20 18 24 35 31 20 21 25 28 29 27 27 27 27 29 29 29 28 28 28 27 27 27 27 27 27 27 28 29 30 29 29 29 27 26 26 27 28 29 29 29 29 29 28 26 25 25 26 27 27 30 35 35 32 34 38 45 55 71 81 82 85 93 99 100 100 100 100 100 100 100 100 100 99 99 100 99 99 100 99 99 100 100 100 100 100 100
25 23 20 21 21 21 20 19 23 25 23 22 25 32 30 25 29 31 33 35 32 29 28 28 30 30 30 30 30 31 30 31 33 33 34 35 35 35 35 34 34 34 33 32 32 32 33 33 32 32 32 32 33 33 33 32 30 29 30 31 31 32 35 36 35 34 37 42 54 71 79 77 79 89 96 97 99 100 100 100 100 100 100 100 100 100 100 99 100 100 99 99 100 99 99 100 99
23 19 17 18 16 17 17 17 23 23 21 25 27 27 26 26 33 38 42 43 37 30 28 29 30 30 31 32 33 34 35 37 39 42 45 46 47 46 45 43 42 40 38 37 38 37 36 34 33 32 33 34 34 35 36 36 36 34 33 33 34 34 34 36 38 38 39 39 40 48 60 68 75 84 89 91 95 98 99 100 100 100 99 100 100 100 100 100 99 100 100 100 100 97 97 99 99
19 16 16 15 14 15 15 17 20 21 28 34 29 28 31 33 39 47 49 47 39 32 31 32 32 31 31 32 33 34 34 36 38 40 43 45 46 47 48 48 46 43 41 38 35 33 31 31 32 32 32 32 32 33 34 35 37 38 38 37 37 38 38 38 38 38 39 40 43 44 45 52 62 75 86 91 95 98 100 100 99 99 100 100 100 99 100 100 100 100 99 100 100 98 98 99 100
17 16 15 13 15 14 16 25 27 28 40 40 28 29 35 39 45 50 51 49 42 37 36 35 33 31 29 29 30 30 31 34 36 37 38 40 41 42 43 44 44 41 36 31 26 22 21 21 23 25 26 27 28 28 29 29 31 34 37 39 39 40 41 42 43 42 41 39 41 44 46 48 50 57 67 76 84 90 96 100 100 98 98 99 100 100 100 100 100 100 99 100 100 100 100 100 100
16 16 15 15 16 16 24 32 30 37 48 38 27 28 31 36 43 45 48 49 46 42 38 34 30 29 28 27 29 33 35 37 39 39 41 42 43 43 43 41 38 34 28 23 18 14 12 12 12 14 14 16 18 21 24 25 27 28 30 32 35 38 39 41 43 45 47 46 43 41 42 45 48 52 55 58 63 69 74 84 92 95 97 98 99 99 99 99 99 99 100 100 99 100 100 100 100
17 17 19 20 20 21 31 36 36 49 51 31 22 25 27 34 39 38 41 45 46 44 37 33 30 30 30 30 33 36 38 40 44 46 47 50 49 44 40 34 27 23 18 14 11 9 9 8 8 8 9 9 10 12 15 19 22 24 26 26 27 29 32 35 38 41 45 48 49 48 45 42 43 46 50 53 55 56 59 65 73 81 89 94 97 98 98 97 98 99 100 100 100 100 99 100 100
21 21 21 28 31 29 34 38 38 46 41 26 23 26 27 30 32 35 40 43 43 40 35 32 32 34 36 36 38 41 44 50 55 55 52 47 41 32 25 21 17 15 13 12 10 10 10 10 9 8 8 9 10 11 11 12 13 15 17 18 19 20 22 24 27 31 37 42 46 49 51 50 47 45 44 45 48 53 56 59 62 67 74 82 89 95 98 99 99 100 100 100 100 100 100 100 100
22 24 24 32 37 38 42 40 38 42 35 25 26 30 31 32 36 39 39 40 39 36 35 35 37 40 42 43 46 51 57 59 55 47 39 30 24 19 16 15 15 15 15 16 15 15 14 14 13 12 11 10 10 12 15 15 14 13 11 11 12 12 13 14 15 18 23 30 38 44 48 51 53 53 50 47 47 50 54 57 59 61 66 72 78 83 88 91 94 96 99 100 100 100 100 100 100
24 26 27 30 31 38 47 44 44 47 39 30 30 34 32 35 47 47 40 42 42 39 41 40 41 46 49 52 55 57 56 49 39 29 24 22 21 20 19 17 17 18 19 20 21 21 20 19 18 17 16 14 13 13 15 19 20 18 16 13 12 12 11 11 11 12 13 16 23 32 40 47 53 57 59 57 54 52 51 52 54 56 60 63 66 70 74 77 80 83 88 95 98 100 100 100 100
28 28 29 32 30 32 38 38 37 38 40 38 32 34 35 38 49 48 46 50 47 47 50 46 48 57 63 65 61 54 47 36 28 24 23 24 24 24 23 22 20 19 21 23 25 25 25 25 24 23 23 22 22 21 21 23 24 24 23 20 17 16 14 13 12 12 12 12 13 16 24 36 47 55 63 66 64 62 59 55 53 53 55 57 57 58 59 62 66 68 72 77 82 88 94 97 99
31 31 32 34 31 30 34 37 33 33 46 44 31 34 38 42 51 51 52 55 48 53 61 57 62 70 72 69 59 48 39 30 27 26 26 26 27 27 26 25 24 23 23 24 24 25 25 25 26 26 26 25 25 26 26 27 28 29 29 28 25 23 21 19 17 15 14 13 13 12 13 21 31 44 57 66 70 74 72 67 63 59 57 56 56 56 56 56 57 58 59 61 63 69 74 77 79
34 35 35 32 32 33 35 40 42 47 57 48 33 36 37 43 57 58 58 61 57 65 76 73 74 75 70 65 57 45 34 29 28 29 30 30 30 30 29 29 27 25 26 27 25 25 24 24 24 24 25 25 25 26 26 27 28 29 31 32 32 31 29 28 25 22 19 17 16 15 14 14 16 24 37 50 67 83 88 84 79 75 70 66 62 60 59 59 59 58 57 58 59 62 63 63 64
35 36 37 33 36 39 38 44 54 64 69 57 41 36 36 46 59 62 65 69 68 75 81 78 77 75 72 67 57 44 34 30 31 32 34 35 33 33 32 30 29 28 29 29 28 27 26 26 26 25 26 26 27 27 27 27 28 29 30 31 33 34 35 35 34 32 28 23 21 19 18 17 15 15 19 26 43 66 83 93 96 94 88 83 77 73 68 66 64 63 63 63 64 65 65 63 65
33 39 39 36 42 47 46 48 52 62 69 64 54 44 44 54 60 61 67 71 72 77 78 78 79 77 76 68 54 42 36 35 36 37 39 38 36 36 34 31 30 30 30 30 29 29 29 28 28 27 27 27 28 29 28 27 28 28 29 29 30 32 34 36 37 39 38 33 29 25 22 21 20 19 17 16 20 30 45 65 84 97 100 98 93 88 84 79 75 71 70 69 69 70 69 67 68
32 40 44 45 49 47 47 44 40 50 63 66 67 60 51 54 58 60 69 75 76 74 72 75 77 75 73 62 46 37 36 38 40 41 41 39 37 37 35 33 32 31 31 31 31 30 29 28 28 27 26 25 25 25 25 25 25 25 26 27 28 29 32 34 34 39 43 41 37 34 30 27 26 24 22 20 18 18 20 28 43 62 81 94 99 100 97 93 89 85 81 78 76 75 74 73 73
31 36 41 46 47 44 53 56 42 45 55 60 72 71 54 48 52 60 72 77 75 72 71 73 76 74 66 52 39 35 38 42 43 43 41 38 37 37 34 32 32 32 31 31 30 29 27 25 24 23 22 21 20 20 20 20 20 21 22 24 26 28 31 34 35 40 47 48 45 43 39 35 32 31 29 27 24 21 20 19 21 28 41 57 75 89 98 100 99 97 94 91 87 85 83 81 80
Wind_Speed
13 13 13 12 11 10 9 8 7 8 8 12 15 14 14 15 17 15 14 15 14 15 16 16 18 19 18 18 19 20 20 20 20 21 22 21 22 22 23 25 26 28 29 27 22 21 21 19 18 17 16 14 14 17 19 19 19 19 19 20 21 19 16 16 16 17 19 19 19 20 19 17 19 25 26 21 15 14 17 19 20 21 22 22 22 21 21 21 20 19 19 18 18 18 18 17 17
13 13 13 12 11 9 6 5 8 8 10 15 15 12 11 13 14 12 13 15 14 14 16 17 19 18 17 17 17 18 18 18 18 21 25 24 23 23 24 25 27 27 28 28 24 21 21 20 20 20 18 15 16 18 18 20 20 21 22 24 25 22 17 18 18 17 20 20 19 19 17 13 15 21 26 24 18 14 14 16 18 18 19 19 20 21 21 20 20 19 19 18 18 18 18 17 16
12 12 12 11 9 7 7 6 9 10 13 16 15 13 10 11 10 9 13 15 14 15 17 18 18 17 16 15 15 17 16 15 17 19 23 21 20 20 21 24 25 26 26 28 25 22 22 20 20 20 18 17 18 19 18 19 20 23 25 27 26 23 22 21 17 18 19 20 19 17 16 13 12 15 20 21 19 16 13 13 14 15 15 16 18 19 19 19 19 18 18 17 17 18 17 17 16
10 9 9 9 5 5 8 8 11 12 15 17 17 16 10 8 9 11 14 13 15 15 17 17 17 16 15 15 15 15 15 15 16 17 21 20 20 20 19 22 23 24 24 26 25 23 22 21 20 20 19 19 19 19 19 19 21 26 27 27 25 22 22 19 17 18 18 20 20 17 16 15 12 13 14 15 16 15 12 10 11 12 12 13 16 18 18 18 17 17 16 15 16 16 16 16 16
8 7 6 6 3 4 7 10 12 13 16 15 16 16 10 9 12 14 14 14 17 15 15 15 15 15 16 17 15 13 13 14 15 16 20 19 19 19 18 20 20 21 22 23 24 23 22 20 20 20 20 20 19 18 20 21 22 26 27 24 23 22 21 20 20 18 17 19 20 18 17 16 16 16 15 15 15 13 11 11 9 9 11 12 14 16 17 17 15 15 14 14 15 15 15 15 15
7 6 7 5 4 4 7 10 11 14 15 14 14 14 10 9 10 13 14 14 18 18 16 14 15 16 17 18 16 16 14 13 16 16 18 18 18 19 17 18 19 19 20 20 21 22 21 19 20 20 21 21 19 19 21 23 23 25 26 25 24 24 24 23 20 17 17 19 21 21 20 18 17 18 19 20 18 14 11 12 10 8 10 11 12 14 14 14 14 14 13 13 15 15 15 15 15
8 7 6 5 5 6 7 10 12 14 14 11 11 11 9 10 12 15 15 13 17 20 20 17 16 17 16 18 18 19 18 15 17 17 17 18 17 18 17 18 19 18 18 18 20 21 20 18 19 20 21 22 18 19 21 22 23 25 27 29 27 27 26 23 20 18 17 18 20 22 22 21 20 18 19 21 21 19 17 15 13 10 9 10 11 13 13 13 13 13 13 14 15 15 15 15 15
7 6 4 4 4 7 9 11 13 13 12 11 11 12 12 14 16 17 17 16 16 17 21 21 19 18 18 20 19 21 22 17 17 17 17 18 16 17 16 17 17 17 18 18 19 21 20 19 19 20 21 21 18 18 20 21 24 25 27 29 29 29 27 24 22 20 19 19 20 21 22 23 23 18 15 16 17 20 21 18 15 14 13 13 12 13 13 14 14 14 14 14 15 15 15 15 15
7 5 5 5 5 8 11 12 14 12 10 11 12 13 14 16 17 17 18 17 16 15 18 22 22 21 20 21 20 21 23 19 18 19 18 18 17 17 17 17 16 15 16 18 19 20 20 20 20 21 21 20 19 19 21 22 24 26 27 28 29 30 28 26 24 22 20 19 20 21 21 22 23 21 17 14 13 13 16 15 14 15 15 15 15 15 14 14 14 14 14 15 16 15 15 15 15
6 4 5 6 7 9 11 12 13 11 8 10 12 13 14 17 18 17 18 18 17 16 17 21 22 22 21 20 20 20 22 22 20 19 18 19 19 19 18 17 16 15 14 16 18 19 20 20 21 22 22 22 21 20 22 23 24 27 27 27 29 30 29 27 25 22 19 19 20 21 21 21 22 23 22 21 18 15 13 12 13 14 13 13 14 16 17 16 15 15 15 15 15 15 15 15 14
4 5 6 7 8 10 12 12 13 12 10 12 14 16 16 19 20 18 19 17 15 15 19 22 21 20 20 19 21 20 21 22 20 19 21 21 21 21 20 18 16 15 15 15 16 17 18 18 20 22 23 24 22 21 23 23 25 27 27 29 29 29 30 29 26 22 19 19 20 20 21 22 23 25 26 26 25 23 19 16 15 15 14 13 13 14 16 17 17 17 17 15 15 15 14 14 14
3 3 7 8 9 11 13 14 15 14 14 14 13 15 15 17 20 20 20 17 16 16 16 19 20 19 19 18 19 20 21 22 20 20 22 22 21 20 21 19 17 16 16 16 17 18 18 17 18 20 23 26 24 22 24 24 26 28 28 31 31 32 32 28 26 23 21 19 19 21 21 22 23 25 26 27 28 29 27 24 20 19 19 18 17 16 15 15 16 17 16 15 14 14 14 15 15
4 3 6 10 12 12 14 15 15 14 12 11 12 16 18 19 21 22 21 19 18 14 12 17 20 21 20 17 16 19 18 17 18 18 19 21 21 20 21 22 21 19 19 19 19 20 19 18 17 17 19 23 23 22 24 26 27 29 29 31 32 32 29 27 26 21 19 19 19 20 20 20 20 21 20 20 22 26 28 29 28 26 25 25 24 23 20 16 16 17 16 16 16 14 14 14 15
6 5 7 11 13 12 14 14 14 13 10 13 17 18 20 20 21 23 22 20 16 13 16 18 20 21 19 12 11 19 19 18 21 22 22 23 23 23 23 24 24 24 23 23 22 22 21 19 17 17 17 18 18 19 25 29 29 30 30 30 31 30 28 27 24 17 16 17 17 18 18 17 16 16 15 14 14 17 20 24 28 28 25 24 25 25 24 21 17 17 17 17 18 16 16 16 16
6 7 9 11 12 12 13 13 12 12 10 12 16 17 19 19 20 23 24 23 18 16 20 20 20 21 17 12 13 22 25 24 25 26 26 25 24 24 25 25 26 26 26 26 25 24 23 21 19 18 18 17 16 16 24 32 33 32 30 31 32 31 29 24 17 14 15 15 15 16 18 17 16 15 15 14 14 16 18 20 22 24 21 18 20 21 21 21 18 17 18 18 18 18 19 19 20
7 9 10 10 12 12 11 11 11 11 9 9 12 15 18 20 20 22 23 24 21 18 19 19 21 22 19 16 19 24 25 25 26 26 26 25 25 25 25 25 25 25 25 26 25 24 23 22 20 19 18 18 16 16 21 28 31 31 29 29 29 27 24 17 12 13 15 15 15 17 18 19 17 16 16 16 17 19 20 20 20 21 20 18 19 20 19 19 18 18 21 20 18 19 19 20 21
10 9 9 9 10 10 10 10 10 10 13 13 13 16 17 20 21 20 22 25 24 21 20 20 20 23 23 21 22 26 26 24 25 25 26 26 26 26 26 25 25 25 24 24 24 23 22 22 21 20 19 18 17 16 21 25 27 29 27 26 28 26 23 19 19 17 16 17 17 18 19 18 17 18 18 18 20 21 20 20 20 20 20 21 21 22 22 21 20 21 22 22 21 20 20 20 20
10 9 7 8 9 9 10 10 12 15 17 18 20 22 22 23 21 21 25 25 23 23 22 19 16 18 22 23 24 27 28 26 25 24 24 25 27 27 27 26 25 25 24 23 22 22 22 21 21 21 20 19 18 18 20 24 26 28 29 29 30 30 29 28 26 20 17 18 19 19 19 19 19 20 18 19 22 21 20 20 20 20 19 20 21 22 22 22 22 22 23 23 23 23 22 21 21
11 10 8 10 10 10 12 11 14 18 21 23 23 23 24 23 22 24 26 24 24 22 18 15 12 11 12 12 15 22 27 27 28 26 24 25 28 29 30 29 28 26 25 24 22 22 22 21 21 21 21 20 20 19 19 23 26 28 32 32 34 35 33 29 25 20 19 20 21 22 21 21 21 20 18 21 24 21 20 20 20 20 19 18 19 20 20 21 22 23 23 23 24 24 24 23 23
13 11 11 11 10 12 15 14 16 21 25 25 24 23 23 22 23 25 25 25 23 19 15 12 13 14 16 14 11 19 26 29 32 31 29 29 28 29 29 30 30 28 25 24 23 22 22 22 21 20 20 20 20 21 21 23 25 28 32 33 35 36 31 26 24 22 20 20 21 22 22 22 21 19 19 22 25 23 21 20 20 19 17 18 19 19 19 20 22 23 23 24 24 24 25 24 24
13 12 13 12 13 16 16 15 19 25 26 25 24 24 23 22 23 24 24 25 21 16 14 16 19 21 23 22 22 26 28 31 34 32 30 28 26 26 27 27 28 29 27 25 24 22 22 22 22 21 21 21 21 21 22 23 24 27 30 32 34 33 29 25 25 24 21 21 22 23 24 24 22 20 22 24 25 24 22 21 21 20 19 18 19 19 19 21 22 23 24 25 25 25 25 25 25
16 15 15 14 14 17 16 16 21 26 25 24 23 24 23 23 23 22 22 21 17 14 15 17 19 20 22 23 24 25 26 28 30 30 29 28 26 25 25 26 26 27 28 26 25 24 21 20 21 22 23 23 22 22 22 23 26 28 29 31 33 33 31 27 26 26 25 24 24 26 27 27 26 25 26 26 26 26 25 24 25 25 23 23 23 22 21 22 23 24 25 26 27 27 27 27 27
19 17 16 14 13 17 20 21 23 25 24 23 23 23 23 22 21 20 17 13 11 12 14 15 15 17 18 20 22 23 23 24 25 27 27 27 27 25 24 24 24 24 26 26 25 24 22 20 20 21 22 24 24 23 22 22 25 29 30 31 32 32 33 31 29 28 28 28 26 29 31 31 30 30 29 28 27 27 27 27 27 27 25 25 26 24 23 24 24 25 25 26 27 28 29 29 29
22 20 17 15 16 19 22 22 22 22 21 22 22 21 20 19 18 15 11 7 8 10 11 11 13 16 18 20 22 23 23 24 24 25 25 25 25 24 24 24 24 24 24 24 24 24 23 22 21 20 20 22 24 24 24 24 24 27 31 32 31 30 31 31 32 30 29 30 29 30 33 34 34 33 33 32 29 28 28 29 28 28 26 27 28 26 25 26 26 26 27 27 28 29 30 31 30
20 20 18 18 18 19 21 21 20 19 19 20 20 18 16 16 14 9 7 8 7 8 9 12 16 19 21 22 24 25 25 25 25 25 24 24 23 23 23 23 23 23 24 24 24 24 23 23 22 21 20 21 22 23 23 24 25 27 30 32 32 31 31 32 32 30 30 31 31 31 32 35 35 35 35 34 33 31 30 31 30 29 28 29 30 29 28 29 29 28 29 29 29 30 31 32 32
17 18 19 20 19 18 19 19 19 18 18 18 17 16 14 13 8 3 9 9 6 9 12 16 20 22 23 24 25 26 26 26 25 25 24 24 24 23 23 23 23 22 22 22 23 24 24 24 24 22 23 21 21 22 23 25 28 29 30 31 33 33 33 34 34 33 32 33 34 34 34 35 35 36 36 35 35 33 32 32 32 30 29 30 31 30 30 31 31 30 30 31 31 32 32 33 32
16 18 20 21 18 17 17 16 14 14 16 15 15 15 14 11 2 5 11 10 8 13 15 19 21 22 23 24 24 23 24 23 23 23 22 22 22 22 23 23 23 23 23 22 23 24 24 25 25 24 24 23 22 21 22 24 27 29 31 33 33 32 34 37 37 36 33 34 38 37 35 36 36 36 37 35 34 33 31 30 31 30 30 30 31 31 30 31 31 30 31 31 32 32 33 33 33
16 18 19 18 17 16 14 12 10 10 13 13 14 13 10 7 7 9 11 11 12 16 17 20 22 21 21 21 20 19 19 20 20 20 19 19 20 20 20 21 21 22 23 24 24 24 25 26 26 25 24 25 24 22 21 23 25 28 31 34 34 33 36 39 39 38 36 38 41 39 35 34 34 34 36 35 33 32 31 31 33 34 33 33 34 32 31 31 31 31 31 31 32 33 33 34 35
17 18 20 17 15 13 10 9 9 12 14 12 12 7 0 5 8 10 12 13 16 18 20 23 22 20 18 18 18 17 18 19 19 18 18 17 17 18 18 19 19 20 20 22 24 25 26 27 28 28 27 27 26 25 24 23 24 26 29 31 33 33 36 39 39 40 40 40 42 40 36 33 33 34 35 35 35 34 33 33 34 34 34 35 36 34 33 33 32 32 32 32 33 33 34 35 36
17 17 18 15 12 11 9 8 11 15 13 10 10 3 5 7 10 15 16 18 21 20 22 24 23 19 17 17 18 19 20 20 19 18 18 17 17 17 18 18 18 19 19 20 22 23 25 27 28 27 28 31 30 28 26 24 25 27 28 30 32 34 37 39 38 40 41 38 40 42 37 34 35 35 35 35 35 35 34 34 32 32 32 34 35 36 35 34 34 33 32 33 34 34 35 35 37
17 14 12 11 10 10 10 11 13 15 12 10 13 5 9 13 14 18 20 21 24 23 24 24 22 19 17 17 18 19 20 21 21 20 20 19 19 19 19 19 19 20 20 20 21 22 24 27 28 26 25 29 31 31 29 27 27 28 30 30 31 34 35 38 37 38 41 39 42 42 38 38 39 39 38 37 35 35 35 34 33 32 32 33 34 35 36 36 35 34 33 33 34 34 35 36 37
16 12 8 8 8 9 12 15 15 15 15 13 12 7 10 15 15 21 24 25 26 25 25 25 23 20 19 19 19 19 20 21 22 22 23 22 22 21 21 21 21 21 21 21 21 21 22 24 29 29 27 26 27 31 31 30 30 29 30 30 31 32 33 38 39 39 41 42 43 43 41 41 42 42 41 38 35 35 36 35 34 34 34 34 34 34 36 37 37 36 34 33 33 34 35 36 36
11 12 11 9 9 11 13 16 16 17 18 17 14 11 14 20 19 23 27 28 28 26 26 26 24 22 21 22 22 21 20 20 21 22 23 23 23 23 22 22 22 22 21 21 21 22 23 24 27 30 33 30 25 24 26 29 29 29 31 32 32 32 34 37 38 39 41 42 41 42 43 41 43 45 40 35 35 35 34 34 34 34 35 35 34 34 35 37 37 37 35 34 33 32 33 34 34
6 10 12 11 11 12 12 15 18 19 19 18 19 18 18 24 25 26 28 28 27 27 28 28 26 25 23 23 23 22 22 21 21 21 21 22 22 22 22 22 22 21 21 21 21 21 23 24 26 28 32 34 30 25 24 24 23 25 31 33 33 33 34 36 38 38 39 40 40 41 43 44 49 49 39 34 36 36 36 36 36 36 37 36 34 35 36 37 37 37 35 33 33 32 32 32 31
9 12 14 16 17 18 17 17 18 20 22 20 21 20 18 26 28 27 28 27 27 29 30 29 27 25 24 23 22 21 21 21 20 20 19 19 19 20 20 21 21 21 21 21 20 20 21 22 23 24 26 30 33 32 29 27 24 25 28 31 33 34 35 36 39 40 39 39 39 39 42 47 52 50 41 38 38 39 40 40 40 41 39 38 37 37 37 38 39 38 35 33 33 33 32 31 30
15 18 20 23 24 25 22 20 18 20 22 21 21 17 15 24 27 28 30 30 30 30 29 27 26 24 23 21 20 19 18 18 18 17 17 17 16 17 17 18 19 20 21 20 20 19 19 20 21 22 23 26 30 33 34 32 30 30 30 31 32 33 35 37 39 41 41 43 41 37 37 41 48 48 44 43 41 41 42 40 40 39 38 38 38 39 38 39 39 38 36 34 34 35 34 33 32
21 23 25 25 27 27 22 18 19 19 20 20 18 13 16 24 27 29 31 32 33 30 27 24 22 22 21 20 18 17 16 15 15 14 13 13 13 13 13 13 13 15 17 18 19 19 18 18 19 21 22 24 26 29 33 35 35 35 34 33 33 33 35 37 39 39 40 43 44 41 37 34 39 43 44 44 43 42 41 40 40 38 37 38 39 40 39 39 39 38 38 36 36 38 37 36 34
24 25 26 26 25 25 19 17 19 19 20 20 15 13 20 26 28 31 33 33 33 31 26 23 20 18 18 17 16 15 15 14 13 12 12 11 11 11 11 10 10 11 12 14 15 16 16 16 16 18 20 22 24 26 29 34 36 38 38 37 36 35 34 35 37 37 39 41 43 44 41 36 34 36 38 40 41 42 42 41 42 43 41 39 39 39 39 40 40 40 41 39 38 39 39 39 38
21 22 22 24 23 19 15 15 18 18 20 20 16 15 22 29 33 34 35 34 32 29 25 22 20 18 16 15 15 15 14 14 14 13 13 12 12 12 12 12 12 12 13 13 14 14 14 15 15 16 17 20 22 24 26 29 32 36 39 39 39 37 35 34 35 37 39 41 43 44 44 41 40 38 38 37 36 39 41 40 42 45 45 43 41 39 38 39 41 42 43 42 40 40 40 40 41
19 19 20 22 20 14 15 17 17 20 24 25 23 20 25 33 36 35 33 30 28 25 23 22 19 17 15 14 14 14 14 15 15 15 15 15 15 15 15 16 16 16 17 16 17 17 17 17 17 18 18 19 20 21 23 25 27 30 34 37 39 38 37 36 37 39 40 41 42 44 45 45 44 43 40 39 39 38 38 38 39 41 43 45 44 41 40 40 41 42 43 43 43 44 44 43 43
20 17 18 20 19 17 19 22 22 26 29 27 22 19 23 31 34 33 30 26 25 24 22 19 17 15 13 13 13 13 14 15 16 17 18 19 19 20 20 20 21 21 21 22 22 22 22 22 22 22 22 23 23 23 23 24 25 27 28 31 34 36 36 36 37 39 41 42 42 44 46 48 48 47 44 43 43 40 38 37 38 39 41 42 42 42 42 42 43 44 44 45 46 47 48 47 45
18 13 15 18 20 21 22 25 26 27 23 16 10 10 12 21 28 29 27 25 23 22 20 17 15 14 14 14 14 15 16 17 18 19 20 22 23 24 25 25 26 26 26 26 26 26 27 27 27 27 26 26 26 26 26 26 26 26 27 28 30 32 34 34 35 37 40 42 43 44 46 48 50 51 50 48 47 45 42 40 39 41 43 43 42 42 43 43 44 45 47 47 46 47 48 49 48
16 16 17 17 19 21 22 23 22 17 14 10 8 8 7 11 19 25 24 22 21 20 19 17 15 14 15 16 16 18 19 20 20 21 22 23 25 26 28 29 30 31 31 31 30 31 30 30 30 30 30 30 28 28 28 28 28 28 28 28 29 30 32 32 33 34 37 39 42 44 47 50 50 50 51 51 50 48 46 45 43 43 45 46 47 47 46 45 45 46 48 49 49 49 48 49 49
18 18 17 17 17 18 19 20 19 19 21 21 17 16 16 12 15 22 22 18 17 19 19 17 17 16 16 17 18 18 19 20 21 23 24 26 27 28 30 31 32 32 33 33 33 33 33 34 34 33 33 32 32 31 30 29 28 28 29 29 30 30 31 31 31 32 34 36 39 43 46 49 50 51 52 52 52 51 49 49 48 47 47 48 50 51 51 50 49 48 48 50 54 55 54 53 51
17 17 17 17 18 18 19 19 22 21 18 21 18 15 14 8 14 20 18 16 16 19 20 17 16 16 17 18 19 20 22 23 25 27 28 30 31 33 34 34 35 35 34 34 34 34 34 34 33 32 31 31 31 31 32 31 30 29 29 29 30 30 31 31 31 31 32 33 35 39 42 45 47 50 52 53 54 54 53 53 53 53 52 51 52 53 54 54 53 52 50 49 50 53 56 57 56
16 18 19 20 19 19 18 17 17 14 10 19 21 15 12 5 13 18 13 14 18 20 19 16 14 16 19 20 22 23 25 27 29 31 33 35 37 38 40 41 41 40 39 39 38 37 36 35 33 33 32 31 30 30 30 30 30 30 30 30 30 30 31 31 32 32 32 31 32 34 37 40 43 46 49 52 54 56 56 56 57 57 56 56 56 57 57 57 57 56 55 53 51 51 52 54 56
19 20 20 21 20 16 14 13 10 7 6 12 14 10 12 4 9 18 15 15 20 19 17 15 16 18 20 22 23 23 25 27 29 32 35 37 39 41 43 45 46 46 45 43 42 40 38 37 36 35 35 34 33 32 30 30 29 29 30 30 31 31 31 31 31 32 32 32 32 32 33 35 37 40 44 47 51 54 56 57 58 58 57 57 58 58 59 60 59 59 58 58 57 56 55 55 56
19 19 18 19 17 10 9 9 3 2 4 4 2 2 5 3 7 15 17 18 19 16 15 15 17 19 20 21 22 22 24 28 31 34 36 38 39 41 42 43 44 44 44 44 43 42 41 40 39 37 36 35 35 35 34 32 31 30 30 30 31 32 33 33 32 32 32 33 33 32 32 33 34 36 38 41 44 47 50 53 55 56 58 59 59 59 59 60 60 59 59 59 59 58 58 59 59
16 16 15 12 9 6 5 3 2 5 4 0 1 4 6 7 8 13 17 18 17 14 15 16 17 18 19 20 20 23 26 29 31 32 35 37 37 38 38 37 38 38 39 41 42 43 43 43 43 41 39 37 37 37 37 37 36 35 33 32 31 32 33 35 35 35 34 34 34 34 34 34 33 34 35 37 39 41 43 45 48 50 52 55 57 59 59 59 59 59 59 58 58 58 58 59 59
16 12 9 7 4 3 4 3 4 5 5 7 11 12 9 9 10 13 15 15 15 14 15 17 17 16 17 18 21 25 27 28 31 33 35 37 37 38 37 37 37 38 39 41 42 43 44 44 45 45 44 42 40 39 39 40 40 39 38 36 34 33 32 32 34 36 37 37 36 35 35 35 35 35 35 36 37 38 39 40 42 44 46 48 50 53 54 55 57 58 58 58 58 57 58 58 59
13 7 8 11 7 4 4 4 3 6 12 20 20 12 8 7 8 13 14 12 13 14 15 16 16 15 17 21 25 27 28 31 34 37 38 39 40 41 42 43 42 42 42 43 43 43 43 43 43 43 44 45 44 43 42 42 42 42 41 41 39 38 36 33 33 34 36 38 39 39 38 37 37 37 36 36 37 38 38 39 39 41 42 44 45 47 48 49 50 52 54 56 57 57 58 58 59
8 8 12 10 7 7 8 9 12 15 15 17 16 9 8 9 11 15 15 12 13 13 13 15 16 17 20 24 28 30 33 37 39 42 43 43 45 46 48 49 49 48 47 47 46 45 44 43 43 43 44 45 45 46 46 46 45 44 44 44 43 42 40 39 37 36 35 36 38 40 41 41 40 39 39 38 37 38 39 39 39 39 40 41 42 44 45 45 46 46 48 49 51 53 55 57 58
8 11 12 9 10 13 14 14 16 15 9 9 13 8 6 7 10 14 13 12 14 11 11 16 18 20 23 25 28 33 37 41 43 45 47 49 50 52 53 55 56 56 54 53 52 51 50 48 47 47 47 47 47 47 48 47 47 46 45 45 45 45 44 43 42 41 39 38 37 38 40 42 43 43 42 41 40 40 40 40 39 39 40 40 41 42 43 44 45 45 46 46 46 47 48 50 52
9 12 14 15 13 12 11 8 6 7 5 7 13 15 13 9 7 11 10 10 12 9 11 18 21 23 26 27 30 36 41 45 46 48 50 53 55 56 57 57 59 59 58 57 57 56 55 54 53 52 51 51 50 50 49 48 47 46 45 44 45 45 45 45 44 44 43 41 40 39 39 41 42 44 44 44 43 43 42 41 41 41 41 41 41 41 42 43 44 45 45 46 45 45 46 46 47
14 15 14 10 5 5 8 6 3 5 4 5 12 18 17 9 5 6 5 7 11 12 15 20 23 25 27 30 35 41 46 48 49 51 53 55 57 57 58 58 59 58 57 57 57 57 57 56 55 54 53 52 51 50 50 49 48 47 46 45 45 45 45 45 45 45 45 44 43 42 41 40 41 43 44 45 45 44 44 44 43 42 42 42 42 42 42 42 42 43 44 45 45 45 45 46 46
17 13 9 4 1 5 9 9 8 7 5 5 9 12 8 6 7 9 8 10 13 16 19 23 24 25 28 33 40 44 47 48 50 52 54 56 57 56 56 58 57 56 56 56 56 57 57 56 55 55 54 52 50 49 50 50 48 47 46 45 45 45 45 45 45 44 44 45 45 45 44 42 42 42 43 45 46 46 46 45 45 45 44 44 44 44 44 44 44 43 43 44 44 44 45 45 45
11 8 6 4 5 8 11 15 15 11 6 4 4 5 7 9 13 15 14 13 15 20 24 25 25 27 31 38 43 46 48 49 51 54 56 58 58 56 55 56 55 54 54 54 55 55 55 55 54 54 54 53 50 48 48 48 48 47 46 45 44 43 43 44 44 43 43 45 45 45 46 45 44 43 43 44 45 46 47 46 46 46 46 46 46 45 45 45 45 45 45 45 44 44 44 44 44
8 6 6 8 10 11 10 11 13 11 9 7 6 7 13 21 25 24 19 15 17 21 25 26 27 31 36 40 45 49 50 50 53 57 59 61 61 58 56 55 53 52 52 52 52 52 52 53 53 53 53 53 51 48 47 46 46 45 45 44 43 42 42 42 43 42 42 44 44 45 45 46 46 45 44 44 44 45 46 47 47 47 47 47 47 47 47 46 46 47 47 47 47 46 46 45 45
Wind_Direction
298 298 299 300 303 311 319 317 297 285 269 261 268 272 273 276 283 293 297 288 279 280 290 297 298 300 299 295 292 289 285 282 281 278 273 273 277 279 281 281 282 285 286 285 282 279 276 274 275 278 278 265 248 248 246 247 245 242 243 231 231 237 235 244 251 264 273 275 273 272 278 277 257 240 242 253 258 248 237 235 232 232 234 234 235 235 234 233 234 235 235 234 234 235 234 234 232
298 299 300 301 309 312 312 300 279 270 264 264 268 275 287 292 293 300 291 278 280 285 291 298 298 301 300 298 296 291 289 287 280 274 274 276 278 279 279 279 281 283 285 285 283 281 277 273 271 272 274 262 245 243 245 248 245 241 243 236 234 237 247 256 252 264 277 279 276 271 273 267 252 238 235 241 246 251 246 238 233 231 233 232 231 233 232 233 233 233 233 233 232 231 231 230 227
303 304 302 306 319 310 302 285 265 271 274 271 277 286 306 315 308 299 283 276 284 292 296 299 300 302 303 306 303 296 296 289 283 281 281 283 284 281 279 278 280 281 284 285 286 284 278 274 269 267 267 258 246 240 239 244 247 245 243 238 232 236 251 253 249 267 279 280 278 271 266 256 245 236 235 241 239 239 243 240 234 230 230 229 228 231 231 232 233 232 232 232 232 230 228 226 224
316 313 307 311 318 294 293 276 259 267 272 273 284 295 314 321 303 287 284 288 292 297 299 301 305 305 308 310 307 306 304 293 288 287 289 293 291 288 284 281 280 281 283 285 287 284 279 277 270 265 261 255 247 240 235 235 243 242 235 228 226 235 246 250 257 270 275 274 274 269 264 251 233 224 226 234 232 229 230 231 234 229 227 227 227 229 230 231 231 231 230 231 232 231 227 225 224
327 320 331 336 325 278 265 262 262 260 264 275 290 300 311 309 299 287 290 303 301 303 305 307 308 308 313 310 310 313 309 302 297 292 291 294 293 292 292 288 286 286 285 285 286 282 280 278 271 265 257 255 249 240 234 231 234 232 225 221 224 234 249 260 260 263 268 267 270 267 265 254 234 224 221 220 220 224 230 233 237 235 232 229 230 232 232 233 232 231 229 229 232 232 229 227 227
332 344 7 4 334 293 260 260 267 263 269 282 292 301 310 307 298 289 297 308 305 307 308 309 308 308 314 311 313 312 311 313 305 302 298 295 295 294 293 290 291 291 290 287 283 280 280 276 270 265 257 254 248 241 238 235 234 231 231 234 235 243 256 260 252 256 263 264 268 265 262 259 247 236 233 232 226 222 228 236 240 245 248 241 238 238 236 236 234 233 229 230 233 233 232 231 231
347 6 4 348 323 301 277 267 270 274 284 292 293 301 299 283 281 289 300 305 305 309 305 306 306 307 312 308 310 308 309 315 307 306 304 303 304 299 295 289 289 289 290 288 281 279 280 274 269 266 259 254 249 244 243 242 239 237 240 243 245 249 254 253 249 256 261 263 268 267 264 261 257 249 243 244 239 233 230 232 235 240 255 257 254 249 244 242 239 238 234 234 236 236 235 235 235
358 11 339 325 306 290 284 278 280 283 289 291 292 296 288 282 287 293 300 304 307 308 305 307 306 307 309 303 306 304 303 310 308 306 306 308 309 304 302 295 290 288 286 286 284 284 281 273 268 266 261 258 254 247 243 240 236 240 244 244 248 249 249 253 252 255 261 266 269 270 269 263 259 252 246 250 248 247 245 241 241 243 247 256 262 260 253 247 244 242 239 238 240 240 238 238 238
356 0 332 316 293 283 285 284 289 293 289 291 299 297 286 288 300 305 305 304 303 300 298 302 305 306 304 301 303 300 299 303 303 303 303 304 305 302 302 300 298 295 289 287 286 285 281 275 271 268 268 265 259 250 242 237 234 241 245 244 251 249 249 253 250 251 258 264 268 269 270 266 261 251 239 235 234 240 245 240 237 241 242 247 256 262 261 255 250 245 241 239 240 241 241 240 241
347 332 306 300 298 288 284 278 286 298 292 295 307 294 277 284 300 312 310 305 305 303 297 300 306 306 304 304 302 297 298 299 299 298 299 298 298 297 296 297 300 304 303 298 292 288 283 281 277 272 273 270 264 256 245 241 237 239 244 246 248 246 251 253 246 248 254 261 268 269 269 265 260 253 243 233 224 219 226 230 228 232 235 240 248 255 260 260 258 254 249 244 243 242 241 241 241
325 299 295 295 295 286 283 285 294 307 303 299 298 284 275 281 293 306 309 310 309 306 306 306 309 311 310 310 307 301 298 296 295 291 290 292 292 293 293 295 299 303 306 305 302 298 294 291 284 276 274 272 269 259 248 245 240 239 243 243 242 245 252 251 242 249 257 261 267 270 271 265 259 257 254 247 235 225 223 228 234 241 245 248 251 254 257 260 260 259 257 252 250 248 244 243 242
303 281 295 290 283 282 287 295 300 305 307 301 283 276 279 282 292 303 308 309 307 309 312 305 308 314 311 311 308 299 294 295 294 287 285 287 289 291 293 295 296 298 300 301 301 301 300 300 294 284 275 269 266 257 248 248 245 243 242 238 241 246 247 244 243 253 258 259 264 268 268 264 259 257 260 259 249 237 229 227 234 248 255 254 255 260 264 266 264 259 259 258 255 252 250 248 246
304 270 286 280 273 281 286 291 294 296 305 302 282 280 282 284 292 299 305 309 311 313 300 293 303 310 308 316 312 296 293 296 295 290 288 291 291 289 290 292 293 294 295 296 297 297 296 298 298 295 285 275 269 259 251 249 246 244 242 238 240 244 244 242 245 248 251 257 262 265 265 263 259 258 260 261 257 249 241 237 238 246 255 253 253 259 262 264 268 265 260 258 256 252 252 251 250
302 262 262 270 272 279 282 286 291 294 301 294 289 287 284 290 298 302 309 311 312 304 290 293 300 302 308 321 313 297 295 294 296 296 293 293 292 289 287 288 289 291 292 292 293 293 292 292 293 295 294 290 281 269 257 248 245 245 243 241 242 247 246 241 242 242 247 255 260 263 265 264 264 266 265 259 261 261 258 253 249 249 253 256 257 260 262 258 261 270 265 258 256 252 251 252 254
292 263 260 267 277 282 283 286 285 295 301 288 290 290 287 294 302 307 310 308 308 302 299 301 297 299 306 308 298 289 290 293 295 294 292 292 291 289 288 286 287 288 289 289 290 289 288 287 287 289 291 293 287 273 257 244 240 242 244 246 246 245 240 235 241 246 247 252 257 262 263 262 261 264 266 263 264 269 269 265 258 254 252 256 259 262 266 262 258 269 271 264 260 257 254 254 255
289 275 274 268 276 284 287 287 286 293 279 273 306 309 299 300 307 310 306 303 306 304 304 306 304 307 307 307 303 294 295 298 293 290 290 290 290 289 288 287 287 287 287 288 288 286 284 282 281 282 284 288 285 274 261 251 244 241 243 245 238 230 224 225 253 258 250 253 259 263 264 263 262 264 268 270 271 270 268 266 261 255 252 251 254 257 262 264 262 266 271 270 266 263 261 257 255
292 287 282 273 275 283 290 292 292 287 264 261 290 299 299 304 309 307 301 303 309 310 309 311 311 313 315 322 319 307 305 301 292 289 287 288 289 289 288 288 288 288 289 287 287 285 283 281 278 276 275 279 281 272 263 262 258 251 249 244 229 222 222 239 272 274 255 255 259 262 265 265 266 269 272 277 277 273 270 269 265 260 254 249 247 250 252 255 257 258 264 269 271 269 266 263 260
297 299 289 276 270 278 297 300 286 278 272 273 280 286 293 298 302 297 296 302 307 307 311 317 316 315 319 328 327 313 308 302 291 285 284 288 290 290 290 289 288 288 290 288 286 285 283 281 278 274 271 270 272 271 263 260 261 259 260 256 246 242 241 255 278 280 263 258 257 256 259 262 265 267 273 279 277 274 273 272 271 268 261 256 251 250 251 254 256 257 259 263 268 270 269 267 264
302 297 272 264 270 280 291 293 289 284 279 281 288 293 295 298 300 295 296 303 305 311 326 335 324 306 296 308 324 307 298 295 289 287 289 292 291 290 290 289 289 288 288 287 285 283 283 281 279 275 271 267 265 266 263 258 257 258 259 259 260 258 253 262 280 280 272 266 258 257 260 262 264 266 273 279 277 275 275 273 273 271 265 261 258 257 259 260 261 262 261 261 262 264 266 267 264
305 294 275 270 273 278 284 287 288 285 282 289 296 297 296 297 295 293 300 304 308 326 339 322 289 266 251 240 250 270 276 281 287 294 295 293 290 287 287 288 289 289 288 287 286 283 280 279 277 275 270 266 263 262 258 256 257 257 259 260 261 261 258 269 281 277 273 271 266 266 268 268 267 267 273 276 276 276 275 274 274 273 271 267 266 269 271 271 271 270 268 266 264 262 263 263 264
291 279 279 282 277 274 281 290 283 281 287 296 299 296 296 294 293 298 306 307 313 329 317 290 272 261 257 252 248 256 267 277 286 293 294 292 288 285 284 284 285 287 287 285 285 283 281 281 279 278 274 267 262 260 260 259 257 257 261 263 261 261 263 270 275 270 266 268 268 268 269 269 266 265 267 267 268 271 271 272 272 272 273 274 274 276 278 279 280 279 277 274 271 267 265 263 263
280 279 285 292 292 285 279 278 279 285 294 297 298 296 295 295 298 305 308 313 319 313 293 283 280 277 276 276 273 273 275 277 282 288 290 291 289 286 284 283 283 284 285 284 283 283 282 283 282 280 278 275 270 266 264 261 259 259 261 264 265 264 265 267 268 267 265 264 264 265 267 267 265 262 261 261 260 260 262 263 265 266 267 268 269 270 273 274 277 278 279 278 276 272 268 267 266
280 288 289 285 282 279 279 281 284 292 297 297 296 294 297 300 303 308 314 319 308 294 291 290 294 296 295 292 289 287 285 281 281 283 284 285 286 286 283 282 281 280 281 281 281 282 281 278 276 275 274 276 276 272 266 259 258 262 262 263 268 269 268 267 268 268 268 267 266 267 268 267 265 263 261 261 259 256 254 255 257 260 261 263 263 264 266 267 269 271 273 274 275 274 271 268 267
284 293 293 284 272 271 281 290 292 295 296 296 295 294 302 303 303 314 319 303 283 289 299 299 301 301 297 291 288 287 287 287 286 285 285 285 284 282 280 277 276 277 277 278 279 278 278 275 270 268 267 268 271 272 268 260 256 259 260 262 266 268 267 266 266 268 270 271 270 270 271 271 269 268 265 263 261 258 253 252 252 254 256 258 259 260 261 262 263 264 265 267 269 270 270 268 266
288 293 295 291 288 288 293 297 298 300 297 296 299 304 308 303 308 324 294 273 278 286 296 303 304 301 296 290 289 291 294 296 296 296 296 295 294 290 286 281 276 274 274 276 278 278 276 274 271 268 265 261 262 266 265 262 258 254 256 260 264 263 263 265 265 265 266 268 268 267 268 271 272 272 270 268 267 264 258 254 253 252 251 253 256 257 257 259 259 259 260 261 262 264 264 265 264
290 292 292 294 298 299 298 299 301 301 299 303 308 311 310 305 319 306 267 273 287 295 306 311 309 304 299 294 294 296 299 301 301 302 302 300 300 297 294 291 287 282 279 276 275 277 278 277 275 272 269 264 260 258 256 257 258 257 256 260 263 265 266 268 268 266 264 267 269 267 267 270 272 272 273 274 272 269 263 259 258 256 254 253 256 256 255 256 257 257 257 259 259 260 261 262 262
296 294 291 298 306 304 299 297 296 295 300 309 311 313 312 307 288 219 260 275 294 304 312 314 311 305 299 297 296 297 298 299 299 299 298 296 295 294 293 293 293 293 290 285 279 276 276 277 276 274 271 268 263 258 255 253 253 256 259 261 262 264 269 271 271 269 266 268 268 265 266 269 270 271 275 276 275 271 265 263 264 263 262 261 260 258 257 257 258 258 258 260 261 261 262 262 262
301 299 298 304 307 304 302 300 299 304 309 313 316 321 314 277 216 231 263 269 287 304 312 317 314 305 298 296 297 297 297 298 298 296 295 293 290 289 289 288 289 290 289 289 287 282 277 275 275 273 270 268 264 259 256 255 253 253 255 259 261 262 267 270 272 271 272 274 270 267 268 267 267 270 273 275 275 274 268 265 268 269 268 267 265 263 261 260 261 261 261 262 263 263 263 263 263
308 307 305 310 311 305 305 308 314 316 316 317 324 346 19 218 232 266 280 277 290 303 309 316 315 306 299 296 298 299 299 299 297 296 294 292 290 289 287 287 286 284 283 283 283 283 282 278 276 275 272 267 264 260 254 251 255 255 251 253 257 260 263 266 269 272 276 278 275 273 271 267 268 270 271 272 272 275 271 267 270 272 272 271 269 268 266 266 266 266 266 266 265 265 264 263 263
310 309 306 316 326 320 314 313 313 311 313 314 322 354 187 245 273 281 284 285 293 298 301 312 315 307 298 297 299 299 300 299 296 294 292 290 289 289 289 288 287 285 283 281 280 280 279 278 275 274 274 270 267 263 257 252 254 257 252 247 249 253 257 261 265 270 273 274 276 276 270 265 271 271 269 270 269 271 272 271 272 274 275 274 274 275 273 272 271 271 271 270 269 268 266 265 264
311 313 314 324 333 328 310 304 307 306 308 310 315 304 230 254 274 279 282 285 289 292 298 310 313 304 293 292 295 296 297 295 293 292 290 290 287 286 286 285 285 285 284 283 282 279 276 275 270 265 268 271 269 267 262 257 256 258 257 252 247 247 252 259 262 266 269 269 271 272 269 268 272 270 267 267 265 266 267 268 272 274 276 277 278 280 279 277 275 274 275 274 274 272 270 267 266
311 306 316 318 313 312 302 302 305 302 304 306 311 305 257 261 272 278 283 285 287 291 299 307 311 306 293 289 292 294 295 292 290 289 287 288 287 285 283 281 281 282 284 284 282 280 277 272 267 265 263 264 267 269 268 263 259 258 258 258 253 245 245 253 260 263 265 267 267 267 267 268 269 265 262 261 260 260 260 264 270 273 275 278 280 282 283 281 278 277 277 277 278 277 274 271 269
291 274 295 305 296 298 296 298 301 299 302 304 302 304 288 281 279 279 282 286 287 290 298 305 308 307 299 292 293 295 296 294 290 287 286 285 285 285 284 282 281 280 281 282 280 279 277 273 271 270 265 261 262 267 270 268 263 258 255 255 255 249 241 244 253 258 261 263 264 265 267 266 266 263 258 257 259 257 260 264 267 268 271 274 276 279 281 281 280 280 279 279 280 281 279 277 274
288 271 292 292 283 286 287 292 298 297 298 299 301 307 299 287 285 284 283 284 286 291 298 303 305 303 300 296 293 295 297 296 293 289 286 283 282 282 283 282 281 281 281 280 280 279 278 278 278 276 269 266 264 262 264 266 264 260 256 253 253 253 247 242 244 250 256 260 262 264 266 266 265 261 255 254 257 258 261 263 262 263 266 268 271 274 275 276 278 278 279 279 280 281 281 280 279
299 287 287 283 280 280 282 288 290 289 291 292 299 306 296 285 286 286 283 282 285 290 295 298 300 298 296 295 294 294 295 296 295 293 290 286 283 281 280 280 279 281 281 280 280 280 279 279 279 279 276 272 268 265 265 266 266 264 262 257 252 251 250 246 243 244 249 253 260 265 265 265 261 256 254 256 258 259 258 259 258 259 262 264 266 269 270 272 274 275 276 275 276 277 278 277 277
283 282 281 284 287 286 290 291 284 283 286 289 298 300 279 274 281 283 284 285 286 288 291 293 294 292 290 291 291 292 295 297 296 296 295 294 292 290 288 285 283 283 284 284 283 282 281 279 280 279 277 274 269 267 267 268 268 269 270 266 259 253 250 249 246 245 246 246 253 261 261 264 261 257 261 264 263 262 259 257 255 255 258 261 264 265 267 268 269 270 270 272 273 273 273 272 272
279 284 285 288 289 292 299 295 283 282 283 287 294 286 265 269 276 279 282 285 288 291 293 291 287 284 283 284 287 291 294 298 299 300 299 300 301 302 303 302 300 295 292 292 290 289 288 285 284 282 280 278 274 270 268 268 269 271 272 272 269 261 252 249 249 249 250 245 245 250 254 261 264 262 266 267 266 265 263 262 259 258 260 261 262 261 260 260 260 261 261 264 270 271 271 270 268
281 283 287 289 291 298 304 289 278 279 279 282 286 278 273 274 275 278 281 282 286 289 291 290 285 279 277 279 284 290 295 299 299 299 299 301 303 304 308 312 313 311 307 306 303 300 300 299 296 292 288 285 281 276 273 270 270 270 271 272 273 271 262 252 248 248 251 247 241 244 249 254 259 262 266 267 266 266 267 267 264 262 260 259 258 257 257 259 259 258 255 258 266 269 269 268 266
282 284 286 288 294 303 300 281 279 281 278 280 283 275 271 275 276 278 278 278 280 283 284 285 283 278 275 277 284 289 292 293 291 292 295 298 303 305 307 308 310 314 318 319 319 316 315 314 311 307 301 297 292 286 281 276 273 271 271 271 271 273 272 263 252 246 246 247 243 242 246 250 251 254 258 261 262 262 265 267 265 262 261 260 258 257 260 262 262 260 255 256 261 262 261 262 263
290 292 291 290 293 291 279 276 281 283 283 287 288 274 263 268 273 272 270 271 272 276 278 278 277 277 278 281 285 286 284 285 286 291 297 301 305 307 307 309 312 315 316 315 315 314 313 314 315 314 312 308 304 299 295 289 283 279 276 275 273 273 274 270 264 256 249 247 245 242 243 246 249 249 251 253 254 255 257 259 261 261 262 262 260 258 257 258 259 259 256 256 258 258 257 257 257
298 297 289 288 285 276 272 276 282 285 290 293 285 268 258 262 266 265 264 265 268 272 272 272 273 277 284 290 291 293 293 292 294 297 303 307 311 313 314 315 315 314 313 311 310 309 309 312 314 315 315 312 310 308 305 302 297 291 286 281 279 278 276 274 270 266 260 255 251 247 244 244 246 249 251 252 251 253 253 253 253 254 257 259 259 258 256 254 253 253 253 254 255 257 257 256 253
297 288 275 275 276 276 276 281 289 293 299 300 268 247 258 260 260 262 261 260 262 264 265 266 273 281 289 297 302 306 308 307 308 310 310 313 315 318 320 320 320 318 316 315 313 313 313 314 315 314 314 312 310 308 306 305 303 300 295 289 284 281 279 278 274 269 265 261 257 254 250 248 246 247 251 252 252 253 253 252 251 251 253 254 254 254 253 252 251 250 251 251 254 256 257 256 253
290 289 287 284 281 284 284 288 292 290 296 294 246 234 260 255 253 257 256 254 254 255 260 264 273 284 294 304 312 313 313 314 318 321 321 322 323 322 323 322 323 323 322 322 321 320 319 317 316 314 312 311 310 308 305 304 303 301 299 296 291 287 284 282 279 273 269 265 261 258 256 254 251 248 248 250 251 252 252 252 253 253 253 254 255 255 254 254 252 251 250 250 252 254 256 257 256
294 297 302 299 294 295 295 293 285 282 288 286 264 247 258 254 239 246 249 247 252 253 256 264 274 289 302 308 312 312 315 320 324 327 329 331 332 331 331 330 329 328 327 326 324 323 320 318 316 313 311 310 309 308 306 302 300 297 296 294 294 292 290 288 284 279 274 269 266 263 261 260 257 252 250 250 251 252 253 253 253 254 255 256 256 257 257 258 257 256 253 251 250 252 254 257 257
300 308 314 310 309 305 299 290 281 286 290 283 271 242 247 246 212 227 242 248 258 257 256 265 276 290 300 303 308 312 316 320 321 323 326 327 329 330 331 332 332 332 331 329 328 326 324 321 319 316 312 310 307 305 304 302 299 295 293 291 291 291 290 290 289 286 281 276 271 268 266 265 262 258 254 252 252 252 253 253 254 254 254 255 256 256 257 258 259 259 259 257 255 253 254 256 258
312 317 319 317 317 312 301 289 284 292 275 273 280 244 220 203 193 210 226 242 255 260 259 267 277 290 300 304 310 313 314 316 317 320 322 323 323 324 324 325 326 327 327 328 328 327 326 324 322 320 317 315 311 307 304 302 300 296 294 291 290 289 288 288 288 289 288 284 279 274 271 269 267 264 260 257 255 254 253 253 253 254 255 255 256 256 257 257 258 258 259 260 259 258 256 257 258
319 321 325 324 326 323 300 288 290 298 257 269 287 242 217 227 201 207 212 227 246 256 259 271 286 297 304 305 308 309 311 315 317 318 319 320 320 320 319 319 319 319 319 319 321 322 323 323 322 321 320 318 316 314 310 306 302 299 295 292 290 289 288 287 286 287 288 287 285 282 278 274 271 269 266 264 261 259 257 255 254 255 255 256 256 257 258 258 258 258 258 258 258 259 259 259 260
322 330 340 335 334 329 279 268 257 244 262 264 283 221 234 247 199 207 215 224 236 247 259 278 293 300 302 302 304 306 310 315 317 318 317 317 317 317 316 316 315 315 315 315 316 317 318 318 318 318 318 319 317 316 314 311 308 303 299 296 292 290 289 287 286 284 284 283 284 283 281 279 276 273 271 269 267 265 264 262 260 259 258 257 257 257 258 259 259 259 259 259 258 258 258 258 259
332 337 344 342 336 327 272 241 230 256 287 16 51 342 296 262 246 237 228 226 236 255 275 288 296 298 300 302 305 308 311 314 316 316 316 315 315 314 313 314 314 315 315 316 315 315 316 314 313 312 313 314 315 315 315 312 311 307 304 300 296 292 289 288 287 285 283 281 280 279 279 278 277 275 274 273 272 270 268 267 266 264 262 260 259 259 258 259 260 260 260 260 259 259 258 258 258
333 337 348 352 337 321 291 276 287 283 299 307 311 323 302 264 260 261 247 240 253 271 283 290 292 294 297 302 306 309 312 314 315 315 316 316 316 315 313 312 313 315 316 316 316 315 315 313 312 310 309 308 308 310 312 312 310 309 306 304 300 296 291 287 284 283 283 282 280 278 276 276 275 274 273 273 273 271 270 268 267 266 265 263 262 261 260 260 260 260 259 259 259 259 259 259 258
328 335 340 327 298 270 281 300 324 307 300 299 300 304 289 262 249 258 261 263 271 279 283 284 286 291 299 305 308 310 312 315 317 318 320 320 320 318 316 314 313 313 315 315 315 314 313 311 310 309 308 306 305 305 306 307 307 307 305 303 302 300 296 291 285 280 279 279 280 280 278 277 274 273 272 271 271 270 269 268 267 267 266 265 264 263 262 261 260 260 259 259 258 258 258 259 259
321 319 327 318 286 273 283 295 298 295 295 296 293 279 262 263 256 259 268 278 283 285 284 283 289 304 312 314 317 317 318 320 322 323 323 323 323 322 320 317 314 314 315 316 315 313 311 309 308 307 306 305 305 304 304 304 304 304 302 301 300 299 298 296 292 287 282 278 277 278 278 279 278 276 274 272 270 270 270 269 268 267 266 265 265 265 264 264 263 261 260 259 258 258 257 258 258
316 316 320 304 287 286 286 292 296 293 283 283 291 288 276 277 268 268 273 280 284 289 292 292 300 311 314 316 321 324 325 326 327 327 326 325 326 325 324 322 319 318 319 318 315 313 312 310 308 307 306 305 304 303 303 302 301 300 299 298 297 296 296 295 294 292 289 285 280 276 275 276 277 277 276 275 273 272 271 269 269 268 268 267 266 265 265 265 265 264 263 262 260 259 258 257 257
327 324 318 307 294 285 284 288 297 297 275 279 295 298 296 291 270 269 277 278 279 287 297 298 303 307 308 313 321 326 328 328 328 328 328 329 329 328 326 324 321 321 321 319 316 314 313 312 310 309 308 307 305 304 302 301 299 298 296 295 294 293 293 292 292 292 291 289 286 282 277 274 274 275 275 275 274 273 272 271 270 269 268 268 267 266 265 264 264 264 264 263 263 262 261 260 259
326 327 323 319 309 301 301 295 304 311 290 282 296 298 297 294 259 253 258 264 273 284 292 294 299 303 308 316 321 325 328 328 328 329 329 330 330 329 326 322 322 322 321 319 317 316 314 313 312 310 309 309 308 306 304 302 300 298 295 293 291 291 290 290 289 290 289 289 287 285 282 278 275 273 273 273 273 272 272 271 271 270 269 268 267 267 266 265 264 263 263 263 262 262 261 260 260
323 326 330 334 284 303 308 300 296 294 281 282 295 300 297 270 256 254 244 253 272 284 290 295 300 306 315 320 323 326 328 327 328 329 329 329 329 328 324 322 322 322 320 318 318 317 316 315 314 312 310 309 309 308 306 304 302 300 297 294 291 289 288 287 286 287 287 287 286 285 284 282 278 275 273 272 271 271 270 269 269 268 268 267 266 266 266 265 265 264 263 262 262 261 261 261 260
326 323 330 315 281 296 307 300 290 279 276 294 297 295 284 272 277 278 267 271 288 294 295 299 303 308 316 320 323 324 323 323 325 327 327 327 327 326 324 322 322 320 319 318 318 317 316 315 314 313 311 310 310 309 308 306 305 303 301 298 295 291 289 286 284 284 284 284 283 283 283 282 280 278 275 272 270 270 269 269 267 266 266 265 264 264 263 263 264 264 263 263 262 261 261 260 260
322 307 293 286 295 315 324 307 297 293 291 298 301 292 285 282 282 281 281 297 312 307 301 301 305 310 316 320 320 320 319 321 324 326 326 326 326 325 323 322 321 319 318 317 316 316 316 315 314 313 312 311 311 311 310 308 307 306 304 302 299 296 292 289 286 284 284 283 282 282 281 281 280 279 277 274 271 269 268 268 268 266 265 264 263 262 261 260 260 261 261 261 261 262 261 260 260